Time,TemperatureF,DewpointF,PressureIn,WindDirection,WindDirectionDegrees,WindSpeedMPH,WindSpeedGustMPH,Humidity,HourlyPrecipIn,Conditions,Clouds,dailyrainin,SoftwareType,DateUTC
2013-05-05 00:03:00,55.6,53.6,29.20,WSW,248,0.0,0.0,93,0.00,,---,0.00,VWS V14.01,2013-05-05 05:03:00,
2013-05-05 00:08:00,55.4,53.4,29.20,NNE,22,0.0,0.0,93,0.00,,---,0.00,VWS V14.01,2013-05-05 05:08:00,
2013-05-05 00:13:00,55.4,53.4,29.20,West,270,0.0,0.0,93,0.00,,---,0.00,VWS V14.01,2013-05-05 05:13:00,
2013-05-05 00:18:00,55.4,53.4,29.20,West,270,0.0,0.0,93,0.00,,---,0.00,VWS V14.01,2013-05-05 05:18:00,
2013-05-05 00:24:00,55.4,53.4,29.20,West,270,0.0,0.0,93,0.00,,---,0.00,VWS V14.01,2013-05-05 05:24:00,
2013-05-05 00:29:00,55.4,53.4,29.20,West,270,0.0,0.0,93,0.00,,---,0.00,VWS V14.01,2013-05-05 05:29:00,
2013-05-05 00:34:00,55.6,53.6,29.20,West,270,0.0,0.0,93,0.00,,---,0.00,VWS V14.01,2013-05-05 05:34:00,
2013-05-05 00:39:00,55.4,53.4,29.20,NNW,338,0.0,0.0,93,0.00,,---,0.00,VWS V14.01,2013-05-05 05:39:00,
2013-05-05 00:44:00,55.4,53.4,29.20,NW,315,0.0,0.0,93,0.00,,---,0.00,VWS V14.01,2013-05-05 05:44:00,
2013-05-05 00:49:00,55.4,53.4,29.20,North,0,0.0,0.0,93,0.00,,---,0.00,VWS V14.01,2013-05-05 05:49:00,
2013-05-05 00:54:00,55.4,53.4,29.20,North,0,0.0,0.0,93,0.00,,---,0.00,VWS V14.01,2013-05-05 05:54:00,
2013-05-05 00:59:00,55.4,53.4,29.20,NNW,338,0.0,0.0,93,0.00,,---,0.00,VWS V14.01,2013-05-05 05:59:00,
2013-05-05 01:04:00,55.6,53.6,29.20,NNW,338,0.0,0.0,93,0.00,,---,0.00,VWS V14.01,2013-05-05 06:04:00,
2013-05-05 01:09:00,55.6,53.6,29.20,NNW,338,1.3,1.3,93,0.00,,---,0.00,VWS V14.01,2013-05-05 06:09:00,
2013-05-05 01:14:00,55.6,53.6,29.20,North,0,0.0,2.0,93,0.00,,---,0.00,VWS V14.01,2013-05-05 06:14:00,
2013-05-05 01:19:00,55.4,53.4,29.20,NW,315,0.0,0.0,93,0.00,,---,0.00,VWS V14.01,2013-05-05 06:19:00,
2013-05-05 01:24:00,55.4,53.4,29.20,NW,315,0.0,0.0,93,0.00,,---,0.00,VWS V14.01,2013-05-05 06:24:00,
2013-05-05 01:30:00,55.4,53.4,29.20,NW,315,0.0,0.0,93,0.00,,---,0.00,VWS V14.01,2013-05-05 06:30:00,
2013-05-05 01:35:00,55.2,53.5,29.20,NW,315,0.0,0.0,94,0.00,,---,0.00,VWS V14.01,2013-05-05 06:35:00,
2013-05-05 01:40:00,55.2,53.5,29.20,North,0,2.7,2.7,94,0.00,,---,0.00,VWS V14.01,2013-05-05 06:40:00,
2013-05-05 01:45:00,55.4,53.4,29.20,West,270,0.0,1.3,93,0.00,,---,0.00,VWS V14.01,2013-05-05 06:45:00,
2013-05-05 01:50:00,55.2,53.5,29.20,NNE,22,0.0,0.0,94,0.00,,---,0.00,VWS V14.01,2013-05-05 06:50:00,
2013-05-05 01:55:00,55.2,53.5,29.20,NNE,22,0.0,0.0,94,0.00,,---,0.00,VWS V14.01,2013-05-05 06:55:00,
2013-05-05 02:00:00,55.4,53.4,29.20,NNE,22,0.0,0.0,93,0.00,,---,0.00,VWS V14.01,2013-05-05 07:00:00,
2013-05-05 02:05:00,55.4,53.4,29.20,NNW,338,0.0,0.0,93,0.00,,---,0.00,VWS V14.01,2013-05-05 07:05:00,
2013-05-05 02:10:00,55.4,53.4,29.20,NNW,338,0.0,0.0,93,0.00,,---,0.00,VWS V14.01,2013-05-05 07:10:00,
2013-05-05 02:15:00,55.2,53.5,29.17,NNW,338,0.0,0.0,94,0.00,,---,0.00,VWS V14.01,2013-05-05 07:15:00,
2013-05-05 02:20:00,55.2,53.5,29.17,NNW,338,2.7,2.7,94,0.00,,---,0.00,VWS V14.01,2013-05-05 07:20:00,
2013-05-05 02:26:00,55.0,53.3,29.17,NW,315,0.0,0.0,94,0.00,,---,0.00,VWS V14.01,2013-05-05 07:26:00,
2013-05-05 02:31:00,55.0,53.3,29.17,NE,45,0.0,0.0,94,0.00,,---,0.00,VWS V14.01,2013-05-05 07:31:00,
2013-05-05 02:36:00,55.0,53.3,29.17,NNW,338,1.3,1.3,94,0.00,,---,0.00,VWS V14.01,2013-05-05 07:36:00,
2013-05-05 02:41:00,55.0,53.3,29.17,North,0,0.0,0.0,94,0.00,,---,0.00,VWS V14.01,2013-05-05 07:41:00,
2013-05-05 02:46:00,55.0,53.3,29.17,North,0,0.0,0.0,94,0.00,,---,0.00,VWS V14.01,2013-05-05 07:46:00,
2013-05-05 02:51:00,55.0,53.3,29.17,North,0,0.0,0.0,94,0.00,,---,0.00,VWS V14.01,2013-05-05 07:51:00,
2013-05-05 02:56:00,55.0,53.3,29.17,North,0,0.0,0.0,94,0.00,,---,0.00,VWS V14.01,2013-05-05 07:56:00,
2013-05-05 03:01:00,54.9,53.2,29.17,North,0,0.0,0.0,94,0.00,,---,0.00,VWS V14.01,2013-05-05 08:01:00,
2013-05-05 03:06:00,54.7,53.0,29.17,North,0,0.0,0.0,94,0.00,,---,0.00,VWS V14.01,2013-05-05 08:06:00,
2013-05-05 03:11:00,54.5,52.8,29.17,North,0,0.0,0.0,94,0.00,,---,0.00,VWS V14.01,2013-05-05 08:11:00,
2013-05-05 03:16:00,54.5,52.8,29.17,North,0,0.0,0.0,94,0.00,,---,0.00,VWS V14.01,2013-05-05 08:16:00,
2013-05-05 03:21:00,54.7,53.0,29.17,North,0,0.0,0.0,94,0.00,,---,0.00,VWS V14.01,2013-05-05 08:21:00,
2013-05-05 03:26:00,54.5,52.8,29.17,NW,315,0.0,0.0,94,0.00,,---,0.00,VWS V14.01,2013-05-05 08:26:00,
2013-05-05 03:31:00,54.5,52.8,29.17,NNW,338,0.0,0.0,94,0.00,,---,0.00,VWS V14.01,2013-05-05 08:31:00,
2013-05-05 03:36:00,54.5,52.8,29.17,NNW,338,0.0,0.0,94,0.00,,---,0.00,VWS V14.01,2013-05-05 08:36:00,
2013-05-05 03:42:00,54.5,52.8,29.17,NW,315,0.0,0.0,94,0.00,,---,0.00,VWS V14.01,2013-05-05 08:42:00,
2013-05-05 03:47:00,54.5,52.8,29.17,NW,315,0.0,0.0,94,0.00,,---,0.00,VWS V14.01,2013-05-05 08:47:00,
2013-05-05 03:52:00,54.5,52.8,29.17,NW,315,0.0,0.0,94,0.00,,---,0.00,VWS V14.01,2013-05-05 08:52:00,
2013-05-05 03:57:00,54.5,52.8,29.17,NW,315,0.0,0.0,94,0.00,,---,0.00,VWS V14.01,2013-05-05 08:57:00,
2013-05-05 04:02:00,54.3,52.6,29.17,NW,315,0.0,0.0,94,0.00,,---,0.00,VWS V14.01,2013-05-05 09:02:00,
2013-05-05 04:07:00,54.3,52.6,29.17,NW,315,0.0,0.0,94,0.00,,---,0.00,VWS V14.01,2013-05-05 09:07:00,
2013-05-05 04:12:00,54.3,52.6,29.17,NW,315,0.0,0.0,94,0.00,,---,0.00,VWS V14.01,2013-05-05 09:12:00,
2013-05-05 04:17:00,54.3,52.6,29.17,NW,315,0.0,0.0,94,0.00,,---,0.00,VWS V14.01,2013-05-05 09:17:00,
2013-05-05 04:22:00,54.3,52.6,29.17,NW,315,0.0,0.9,94,0.00,,---,0.00,VWS V14.01,2013-05-05 09:22:00,
2013-05-05 04:27:00,54.3,52.6,29.17,NW,315,0.0,0.0,94,0.00,,---,0.00,VWS V14.01,2013-05-05 09:27:00,
2013-05-05 04:32:00,54.3,52.6,29.17,NW,315,0.0,0.0,94,0.00,,---,0.00,VWS V14.01,2013-05-05 09:32:00,
2013-05-05 04:37:00,54.3,52.6,29.17,NW,315,0.0,0.0,94,0.00,,---,0.00,VWS V14.01,2013-05-05 09:37:00,
2013-05-05 04:43:00,54.3,52.6,29.17,NW,315,0.0,0.0,94,0.00,,---,0.00,VWS V14.01,2013-05-05 09:43:00,
2013-05-05 04:48:00,54.5,52.8,29.17,SSE,158,0.0,0.0,94,0.00,,---,0.00,VWS V14.01,2013-05-05 09:48:00,
2013-05-05 04:53:00,54.5,53.1,29.17,South,180,0.0,0.0,95,0.00,,---,0.00,VWS V14.01,2013-05-05 09:53:00,
2013-05-05 04:58:00,54.5,53.1,29.17,South,180,0.0,0.0,95,0.00,,---,0.00,VWS V14.01,2013-05-05 09:58:00,
2013-05-05 05:03:00,54.5,53.1,29.17,South,180,0.0,0.0,95,0.00,,---,0.00,VWS V14.01,2013-05-05 10:03:00,
2013-05-05 05:08:00,54.5,53.1,29.17,West,270,0.0,0.0,95,0.00,,---,0.00,VWS V14.01,2013-05-05 10:08:00,
2013-05-05 05:13:00,54.5,53.1,29.17,West,270,0.0,0.0,95,0.00,,---,0.00,VWS V14.01,2013-05-05 10:13:00,
2013-05-05 05:18:00,54.7,53.3,29.17,NW,315,0.0,0.0,95,0.00,,---,0.00,VWS V14.01,2013-05-05 10:18:00,
2013-05-05 05:23:00,54.7,53.3,29.17,West,270,0.0,0.0,95,0.00,,---,0.00,VWS V14.01,2013-05-05 10:23:00,
2013-05-05 05:28:00,54.7,53.3,29.17,NW,315,0.0,0.0,95,0.00,,---,0.00,VWS V14.01,2013-05-05 10:28:00,
2013-05-05 05:33:00,54.7,53.3,29.17,West,270,0.0,2.5,95,0.00,,---,0.00,VWS V14.01,2013-05-05 10:33:00,
2013-05-05 05:38:00,54.7,53.3,29.17,West,270,0.0,0.0,95,0.00,,---,0.00,VWS V14.01,2013-05-05 10:38:00,
2013-05-05 05:43:00,54.7,53.3,29.17,WSW,248,0.0,0.0,95,0.00,,---,0.00,VWS V14.01,2013-05-05 10:43:00,
2013-05-05 05:49:00,54.7,53.3,29.17,WSW,248,0.0,0.0,95,0.00,,---,0.00,VWS V14.01,2013-05-05 10:49:00,
2013-05-05 05:54:00,54.7,53.3,29.17,North,0,0.0,0.0,95,0.00,,---,0.00,VWS V14.01,2013-05-05 10:54:00,
2013-05-05 05:59:00,54.7,53.3,29.17,NW,315,0.9,0.9,95,0.00,,---,0.00,VWS V14.01,2013-05-05 10:59:00,
2013-05-05 06:04:00,54.7,53.3,29.17,NW,315,1.6,1.6,95,0.00,,---,0.00,VWS V14.01,2013-05-05 11:04:00,
2013-05-05 06:09:00,54.7,53.3,29.17,NNW,338,2.7,2.7,95,0.00,,---,0.00,VWS V14.01,2013-05-05 11:09:00,
2013-05-05 06:14:00,54.7,53.3,29.17,NNE,22,2.0,2.2,95,0.00,,---,0.00,VWS V14.01,2013-05-05 11:14:00,
2013-05-05 06:19:00,54.5,53.1,29.17,West,270,1.6,1.6,95,0.00,,---,0.00,VWS V14.01,2013-05-05 11:19:00,
2013-05-05 06:24:00,54.7,53.3,29.17,North,0,0.0,0.0,95,0.00,,---,0.00,VWS V14.01,2013-05-05 11:24:00,
2013-05-05 06:29:00,54.7,53.3,29.17,NNW,338,0.0,0.0,95,0.00,,---,0.00,VWS V14.01,2013-05-05 11:29:00,
2013-05-05 06:34:00,54.7,53.3,29.17,NNE,22,3.6,3.6,95,0.00,,---,0.00,VWS V14.01,2013-05-05 11:34:00,
2013-05-05 06:39:00,54.7,53.3,29.17,NNW,338,0.0,0.0,95,0.00,,---,0.00,VWS V14.01,2013-05-05 11:39:00,
2013-05-05 06:44:00,54.9,53.5,29.17,NNW,338,0.0,1.1,95,0.00,,---,0.00,VWS V14.01,2013-05-05 11:44:00,
2013-05-05 06:49:00,54.9,53.5,29.17,NNW,338,0.0,0.0,95,0.00,,---,0.00,VWS V14.01,2013-05-05 11:49:00,
2013-05-05 06:54:00,54.9,53.5,29.17,NW,315,2.2,2.2,95,0.00,,---,0.00,VWS V14.01,2013-05-05 11:54:00,
2013-05-05 06:59:00,54.9,53.5,29.17,NNW,338,0.9,0.9,95,0.00,,---,0.00,VWS V14.01,2013-05-05 11:59:00,
2013-05-05 07:04:00,54.9,53.5,29.17,NW,315,1.6,2.5,95,0.00,,---,0.00,VWS V14.01,2013-05-05 12:04:00,
2013-05-05 07:10:00,55.0,53.6,29.17,West,270,1.1,2.0,95,0.00,,---,0.00,VWS V14.01,2013-05-05 12:10:00,
2013-05-05 07:15:00,55.0,53.6,29.17,NW,315,2.0,2.0,95,0.00,,---,0.00,VWS V14.01,2013-05-05 12:15:00,
2013-05-05 07:20:00,55.2,53.8,29.17,NNW,338,3.1,3.1,95,0.00,,---,0.00,VWS V14.01,2013-05-05 12:20:00,
2013-05-05 07:25:00,55.2,53.8,29.17,NW,315,1.3,2.0,95,0.00,,---,0.00,VWS V14.01,2013-05-05 12:25:00,
2013-05-05 07:30:00,55.4,54.0,29.17,NNE,22,2.5,2.5,95,0.00,,---,0.00,VWS V14.01,2013-05-05 12:30:00,
2013-05-05 07:35:00,55.6,54.2,29.17,NNW,338,2.0,2.0,95,0.00,,---,0.00,VWS V14.01,2013-05-05 12:35:00,
2013-05-05 07:40:00,55.6,54.2,29.17,NNW,338,0.0,1.6,95,0.00,,---,0.00,VWS V14.01,2013-05-05 12:40:00,
2013-05-05 07:45:00,55.6,54.2,29.17,NW,315,1.3,2.9,95,0.00,,---,0.00,VWS V14.01,2013-05-05 12:45:00,
2013-05-05 07:50:00,55.8,54.3,29.14,NNE,22,2.2,2.2,95,0.00,,---,0.00,VWS V14.01,2013-05-05 12:50:00,
2013-05-05 07:55:00,55.9,54.5,29.14,NNE,22,2.2,2.2,95,0.00,,---,0.00,VWS V14.01,2013-05-05 12:55:00,
2013-05-05 08:00:00,56.1,54.7,29.14,North,0,1.3,1.3,95,0.00,,---,0.00,VWS V14.01,2013-05-05 13:00:00,
2013-05-05 08:05:00,56.3,54.9,29.14,North,0,2.5,3.1,95,0.00,,---,0.00,VWS V14.01,2013-05-05 13:05:00,
2013-05-05 08:11:00,56.3,54.9,29.14,NNW,338,0.0,1.1,95,0.00,,---,0.00,VWS V14.01,2013-05-05 13:11:00,
2013-05-05 08:16:00,56.5,55.1,29.14,NW,315,1.1,1.1,95,0.00,,---,0.00,VWS V14.01,2013-05-05 13:16:00,
2013-05-05 08:21:00,56.7,55.0,29.14,NNE,22,0.0,0.0,94,0.00,,---,0.00,VWS V14.01,2013-05-05 13:21:00,
2013-05-05 08:26:00,56.8,55.1,29.14,WNW,292,3.1,4.7,94,0.00,,---,0.00,VWS V14.01,2013-05-05 13:26:00,
2013-05-05 08:31:00,57.0,55.3,29.14,North,0,2.2,3.1,94,0.00,,---,0.00,VWS V14.01,2013-05-05 13:31:00,
2013-05-05 08:36:00,57.2,55.5,29.14,NNE,22,4.7,4.7,94,0.00,,---,0.00,VWS V14.01,2013-05-05 13:36:00,
2013-05-05 08:41:00,57.4,55.7,29.14,NE,45,2.9,2.9,94,0.00,,---,0.00,VWS V14.01,2013-05-05 13:41:00,
2013-05-05 08:46:00,57.6,55.8,29.14,East,90,3.1,3.1,94,0.00,,---,0.00,VWS V14.01,2013-05-05 13:46:00,
2013-05-05 08:51:00,57.9,56.2,29.14,NE,45,4.3,4.3,94,0.00,,---,0.00,VWS V14.01,2013-05-05 13:51:00,
2013-05-05 08:56:00,58.3,56.3,29.14,NNE,22,2.2,2.2,93,0.00,,---,0.00,VWS V14.01,2013-05-05 13:56:00,
2013-05-05 09:02:00,58.6,56.6,29.14,West,270,1.3,2.7,93,0.00,,---,0.00,VWS V14.01,2013-05-05 14:02:00,
2013-05-05 09:07:00,58.8,56.8,29.14,NNE,22,3.8,3.8,93,0.00,,---,0.00,VWS V14.01,2013-05-05 14:07:00,
2013-05-05 09:12:00,58.6,56.3,29.14,North,0,0.0,0.0,92,0.00,,---,0.00,VWS V14.01,2013-05-05 14:12:00,
2013-05-05 09:17:00,58.6,56.3,29.17,West,270,0.0,2.7,92,0.00,,---,0.00,VWS V14.01,2013-05-05 14:17:00,
2013-05-05 09:22:00,58.6,56.0,29.17,NNE,22,0.9,2.7,91,0.00,,---,0.00,VWS V14.01,2013-05-05 14:22:00,
2013-05-05 09:27:00,58.8,56.2,29.17,NE,45,2.7,2.7,91,0.00,,---,0.00,VWS V14.01,2013-05-05 14:27:00,
2013-05-05 09:32:00,59.2,56.2,29.17,ENE,68,2.9,2.9,90,0.00,,---,0.00,VWS V14.01,2013-05-05 14:32:00,
2013-05-05 09:37:00,59.4,56.1,29.17,NNE,22,6.5,6.5,89,0.00,,---,0.00,VWS V14.01,2013-05-05 14:37:00,
2013-05-05 09:42:00,59.4,56.1,29.17,North,0,4.3,4.3,89,0.00,,---,0.00,VWS V14.01,2013-05-05 14:42:00,
2013-05-05 09:47:00,59.9,56.7,29.17,NNE,22,5.8,5.8,89,0.00,,---,0.00,VWS V14.01,2013-05-05 14:47:00,
2013-05-05 09:52:00,60.1,56.5,29.17,ENE,68,2.5,2.5,88,0.00,,---,0.00,VWS V14.01,2013-05-05 14:52:00,
2013-05-05 09:58:00,60.1,56.5,29.17,East,90,4.7,4.7,88,0.00,,---,0.00,VWS V14.01,2013-05-05 14:58:00,
2013-05-05 10:03:00,60.1,56.2,29.17,North,0,2.7,5.4,87,0.00,,---,0.00,VWS V14.01,2013-05-05 15:03:00,
2013-05-05 10:08:00,60.4,56.6,29.17,East,90,3.1,3.1,87,0.00,,---,0.00,VWS V14.01,2013-05-05 15:08:00,
2013-05-05 10:13:00,60.6,56.1,29.17,NW,315,2.9,4.3,85,0.00,,---,0.00,VWS V14.01,2013-05-05 15:13:00,
2013-05-05 10:18:00,61.3,56.8,29.17,NNE,22,5.6,5.6,85,0.00,,---,0.00,VWS V14.01,2013-05-05 15:18:00,
2013-05-05 10:23:00,61.7,56.8,29.17,NE,45,2.7,2.9,84,0.00,,---,0.00,VWS V14.01,2013-05-05 15:23:00,
2013-05-05 10:28:00,62.1,57.2,29.17,NNE,22,2.7,2.7,84,0.00,,---,0.00,VWS V14.01,2013-05-05 15:28:00,
2013-05-05 10:33:00,62.2,56.7,29.17,NNE,22,5.4,5.4,82,0.00,,---,0.00,VWS V14.01,2013-05-05 15:33:00,
2013-05-05 10:38:00,62.6,56.0,29.17,ENE,68,3.4,3.4,79,0.00,,---,0.00,VWS V14.01,2013-05-05 15:38:00,
2013-05-05 10:43:00,63.0,57.0,29.17,WNW,292,2.5,4.0,81,0.00,,---,0.00,VWS V14.01,2013-05-05 15:43:00,
2013-05-05 10:48:00,63.7,57.0,29.14,East,90,2.5,2.5,79,0.00,,---,0.00,VWS V14.01,2013-05-05 15:48:00,
2013-05-05 10:53:00,64.0,56.7,29.14,ENE,68,2.9,3.8,77,0.00,,---,0.00,VWS V14.01,2013-05-05 15:53:00,
2013-05-05 10:59:00,64.0,57.4,29.14,ENE,68,2.7,4.3,79,0.00,,---,0.00,VWS V14.01,2013-05-05 15:59:00,
2013-05-05 11:04:00,64.6,57.2,29.14,NNE,22,2.7,2.7,77,0.00,,---,0.00,VWS V14.01,2013-05-05 16:04:00,
2013-05-05 11:09:00,65.1,57.7,29.14,SSW,202,0.0,1.6,77,0.00,,---,0.00,VWS V14.01,2013-05-05 16:09:00,
2013-05-05 11:14:00,65.3,57.5,29.14,ENE,68,2.7,2.7,76,0.00,,---,0.00,VWS V14.01,2013-05-05 16:14:00,
2013-05-05 11:19:00,65.5,57.7,29.17,ENE,68,3.4,3.4,76,0.00,,---,0.00,VWS V14.01,2013-05-05 16:19:00,
2013-05-05 11:24:00,65.5,56.2,29.17,NE,45,2.9,2.9,72,0.00,,---,0.00,VWS V14.01,2013-05-05 16:24:00,
2013-05-05 11:29:00,65.8,57.0,29.17,NW,315,4.3,4.3,73,0.00,,---,0.00,VWS V14.01,2013-05-05 16:29:00,
2013-05-05 11:34:00,66.4,57.5,29.14,NE,45,2.5,3.4,73,0.00,,---,0.00,VWS V14.01,2013-05-05 16:34:00,
2013-05-05 11:39:00,66.7,57.0,29.14,ENE,68,7.6,7.6,71,0.00,,---,0.00,VWS V14.01,2013-05-05 16:39:00,
2013-05-05 11:44:00,67.1,56.6,29.14,ENE,68,3.8,3.8,69,0.00,,---,0.00,VWS V14.01,2013-05-05 16:44:00,
2013-05-05 11:49:00,67.1,56.6,29.14,ENE,68,3.8,3.8,69,0.00,,---,0.00,VWS V14.01,2013-05-05 16:49:00,
2013-05-05 11:54:00,67.6,56.7,29.14,ENE,68,7.8,7.8,68,0.00,,---,0.00,VWS V14.01,2013-05-05 16:54:00,
2013-05-05 12:00:00,67.8,56.5,29.14,North,0,4.0,4.3,67,0.00,,---,0.00,VWS V14.01,2013-05-05 17:00:00,
2013-05-05 12:05:00,68.4,57.8,29.14,NE,45,3.1,3.1,69,0.00,,---,0.00,VWS V14.01,2013-05-05 17:05:00,
2013-05-05 12:10:00,68.2,57.2,29.14,NNE,22,7.6,7.6,68,0.00,,---,0.00,VWS V14.01,2013-05-05 17:10:00,
2013-05-05 12:15:00,68.5,55.9,29.14,ENE,68,5.4,5.4,64,0.00,,---,0.00,VWS V14.01,2013-05-05 17:15:00,
2013-05-05 12:20:00,68.9,57.9,29.14,NE,45,9.4,9.4,68,0.00,,---,0.00,VWS V14.01,2013-05-05 17:20:00,
2013-05-05 12:25:00,69.1,56.8,29.14,East,90,2.5,5.8,65,0.00,,---,0.00,VWS V14.01,2013-05-05 17:25:00,
2013-05-05 12:30:00,69.4,56.3,29.14,NNW,338,3.1,3.1,63,0.00,,---,0.00,VWS V14.01,2013-05-05 17:30:00,
2013-05-05 12:35:00,70.0,57.7,29.12,North,0,5.6,5.6,65,0.00,,---,0.00,VWS V14.01,2013-05-05 17:35:00,
2013-05-05 12:40:00,69.8,57.1,29.12,NE,45,7.4,7.4,64,0.00,,---,0.00,VWS V14.01,2013-05-05 17:40:00,
2013-05-05 12:45:00,70.3,58.5,29.12,NNE,22,2.7,2.7,66,0.00,,---,0.00,VWS V14.01,2013-05-05 17:45:00,
2013-05-05 12:50:00,70.5,57.3,29.12,NE,45,7.6,7.6,63,0.00,,---,0.00,VWS V14.01,2013-05-05 17:50:00,
2013-05-05 12:55:00,70.3,56.7,29.12,NNE,22,5.4,5.8,62,0.00,,---,0.00,VWS V14.01,2013-05-05 17:55:00,
2013-05-05 13:01:00,70.2,55.6,29.12,NE,45,4.0,4.0,60,0.00,,---,0.00,VWS V14.01,2013-05-05 18:01:00,
2013-05-05 13:06:00,70.7,57.1,29.12,ENE,68,2.9,2.9,62,0.00,,---,0.00,VWS V14.01,2013-05-05 18:06:00,
2013-05-05 13:11:00,70.7,56.2,29.12,East,90,3.1,6.3,60,0.00,,---,0.00,VWS V14.01,2013-05-05 18:11:00,
2013-05-05 13:16:00,70.9,56.8,29.12,NE,45,3.8,3.8,61,0.00,,---,0.00,VWS V14.01,2013-05-05 18:16:00,
2013-05-05 13:21:00,70.9,55.4,29.12,North,0,4.9,8.1,58,0.00,,---,0.00,VWS V14.01,2013-05-05 18:21:00,
2013-05-05 13:26:00,71.2,54.8,29.12,ESE,112,6.5,6.5,56,0.00,,---,0.00,VWS V14.01,2013-05-05 18:26:00,
2013-05-05 13:31:00,71.6,55.1,29.12,NNE,22,4.0,7.4,56,0.00,,---,0.00,VWS V14.01,2013-05-05 18:31:00,
2013-05-05 13:36:00,72.0,54.4,29.12,ENE,68,3.4,3.4,54,0.00,,---,0.00,VWS V14.01,2013-05-05 18:36:00,
2013-05-05 13:41:00,72.3,54.8,29.12,ENE,68,3.4,3.8,54,0.00,,---,0.00,VWS V14.01,2013-05-05 18:41:00,
2013-05-05 13:46:00,72.5,52.8,29.12,NE,45,9.6,9.6,50,0.00,,---,0.00,VWS V14.01,2013-05-05 18:46:00,
2013-05-05 13:51:00,72.3,52.1,29.12,NNE,22,7.2,7.2,49,0.00,,---,0.00,VWS V14.01,2013-05-05 18:51:00,
2013-05-05 13:57:00,73.0,53.3,29.12,ENE,68,2.5,2.9,50,0.00,,---,0.00,VWS V14.01,2013-05-05 18:57:00,
2013-05-05 14:02:00,73.6,52.1,29.12,NE,45,5.8,5.8,47,0.00,,---,0.00,VWS V14.01,2013-05-05 19:02:00,
2013-05-05 14:07:00,73.2,51.2,29.12,NNW,338,6.5,6.5,46,0.00,,---,0.00,VWS V14.01,2013-05-05 19:07:00,
2013-05-05 14:12:00,72.9,50.9,29.12,ENE,68,6.3,6.3,46,0.00,,---,0.00,VWS V14.01,2013-05-05 19:12:00,
2013-05-05 14:17:00,72.5,50.6,29.12,East,90,7.4,7.4,46,0.00,,---,0.00,VWS V14.01,2013-05-05 19:17:00,
2013-05-05 14:22:00,72.3,49.8,29.12,NE,45,7.8,7.8,45,0.00,,---,0.00,VWS V14.01,2013-05-05 19:22:00,
2013-05-05 14:27:00,72.3,49.8,29.12,ENE,68,10.7,10.7,45,0.00,,---,0.00,VWS V14.01,2013-05-05 19:27:00,
2013-05-05 14:32:00,72.5,50.6,29.12,ENE,68,7.6,7.6,46,0.00,,---,0.00,VWS V14.01,2013-05-05 19:32:00,
2013-05-05 14:37:00,72.3,48.6,29.12,SE,135,4.0,7.6,43,0.00,,---,0.00,VWS V14.01,2013-05-05 19:37:00,
2013-05-05 14:42:00,72.5,49.4,29.12,East,90,4.9,4.9,44,0.00,,---,0.00,VWS V14.01,2013-05-05 19:42:00,
2013-05-05 14:47:00,72.7,50.1,29.12,NE,45,4.9,5.6,45,0.00,,---,0.00,VWS V14.01,2013-05-05 19:47:00,
2013-05-05 14:53:00,72.7,48.9,29.12,ENE,68,5.8,8.7,43,0.00,,---,0.00,VWS V14.01,2013-05-05 19:53:00,
2013-05-05 14:58:00,72.3,49.2,29.12,NNW,338,1.6,1.6,44,0.00,,---,0.00,VWS V14.01,2013-05-05 19:58:00,
2013-05-05 15:03:00,72.0,48.9,29.12,East,90,4.7,8.7,44,0.00,,---,0.00,VWS V14.01,2013-05-05 20:03:00,
2013-05-05 15:08:00,71.8,48.1,29.12,ENE,68,5.4,5.4,43,0.00,,---,0.00,VWS V14.01,2013-05-05 20:08:00,
2013-05-05 15:13:00,71.8,48.7,29.12,ENE,68,2.7,3.8,44,0.00,,---,0.00,VWS V14.01,2013-05-05 20:13:00,
2013-05-05 15:18:00,72.1,48.4,29.09,ENE,68,4.9,4.9,43,0.00,,---,0.00,VWS V14.01,2013-05-05 20:18:00,
2013-05-05 15:23:00,72.1,47.8,29.09,NE,45,7.6,7.6,42,0.00,,---,0.00,VWS V14.01,2013-05-05 20:23:00,
2013-05-05 15:28:00,72.1,48.4,29.09,East,90,5.4,5.8,43,0.00,,---,0.00,VWS V14.01,2013-05-05 20:28:00,
2013-05-05 15:33:00,72.1,48.4,29.12,East,90,3.6,3.8,43,0.00,,---,0.00,VWS V14.01,2013-05-05 20:33:00,
2013-05-05 15:38:00,72.3,48.0,29.12,ENE,68,8.1,8.1,42,0.00,,---,0.00,VWS V14.01,2013-05-05 20:38:00,
2013-05-05 15:43:00,72.3,48.0,29.12,East,90,4.0,6.9,42,0.00,,---,0.00,VWS V14.01,2013-05-05 20:43:00,
2013-05-05 15:49:00,72.3,48.0,29.09,East,90,5.6,7.2,42,0.00,,---,0.00,VWS V14.01,2013-05-05 20:49:00,
2013-05-05 15:54:00,72.3,48.6,29.09,ESE,112,4.3,4.7,43,0.00,,---,0.00,VWS V14.01,2013-05-05 20:54:00,
2013-05-05 15:59:00,72.1,47.8,29.09,East,90,5.8,5.8,42,0.00,,---,0.00,VWS V14.01,2013-05-05 20:59:00,
2013-05-05 16:04:00,72.1,47.8,29.09,ENE,68,2.0,2.0,42,0.00,,---,0.00,VWS V14.01,2013-05-05 21:04:00,
2013-05-05 16:09:00,72.1,47.8,29.09,ESE,112,4.0,4.0,42,0.00,,---,0.00,VWS V14.01,2013-05-05 21:09:00,
2013-05-05 16:14:00,72.0,47.6,29.09,East,90,5.6,6.3,42,0.00,,---,0.00,VWS V14.01,2013-05-05 21:14:00,
2013-05-05 16:19:00,71.6,48.6,29.09,SE,135,2.5,2.5,44,0.00,,---,0.00,VWS V14.01,2013-05-05 21:19:00,
2013-05-05 16:24:00,71.6,47.9,29.09,East,90,4.0,5.6,43,0.00,,---,0.00,VWS V14.01,2013-05-05 21:24:00,
2013-05-05 16:29:00,71.2,48.2,29.09,ENE,68,6.0,6.0,44,0.00,,---,0.00,VWS V14.01,2013-05-05 21:29:00,
2013-05-05 16:34:00,70.9,47.9,29.12,ENE,68,7.4,7.4,44,0.00,,---,0.00,VWS V14.01,2013-05-05 21:34:00,
2013-05-05 16:39:00,70.7,48.3,29.12,SE,135,3.1,3.8,45,0.00,,---,0.00,VWS V14.01,2013-05-05 21:39:00,
2013-05-05 16:45:00,70.5,48.2,29.12,South,180,2.0,2.0,45,0.00,,---,0.00,VWS V14.01,2013-05-05 21:45:00,
2013-05-05 16:50:00,70.5,48.8,29.12,East,90,2.9,2.9,46,0.00,,---,0.00,VWS V14.01,2013-05-05 21:50:00,
2013-05-05 16:55:00,70.3,49.2,29.12,SSE,158,5.8,5.8,47,0.00,,---,0.00,VWS V14.01,2013-05-05 21:55:00,
2013-05-05 17:00:00,70.3,49.7,29.12,ENE,68,4.7,4.7,48,0.00,,---,0.00,VWS V14.01,2013-05-05 22:00:00,
2013-05-05 17:05:00,70.2,49.6,29.12,NE,45,5.8,5.8,48,0.00,,---,0.00,VWS V14.01,2013-05-05 22:05:00,
2013-05-05 17:10:00,70.0,49.4,29.12,ENE,68,4.3,4.3,48,0.00,,---,0.00,VWS V14.01,2013-05-05 22:10:00,
2013-05-05 17:15:00,69.8,49.2,29.12,East,90,3.4,3.8,48,0.00,,---,0.00,VWS V14.01,2013-05-05 22:15:00,
2013-05-05 17:20:00,69.6,49.6,29.12,East,90,0.0,4.9,49,0.00,,---,0.00,VWS V14.01,2013-05-05 22:20:00,
2013-05-05 17:25:00,69.6,50.2,29.12,ESE,112,4.0,4.0,50,0.00,,---,0.00,VWS V14.01,2013-05-05 22:25:00,
2013-05-05 17:30:00,69.6,50.2,29.12,SE,135,2.9,2.9,50,0.00,,---,0.00,VWS V14.01,2013-05-05 22:30:00,
2013-05-05 17:35:00,69.4,49.5,29.12,SSE,158,4.0,4.0,49,0.00,,---,0.00,VWS V14.01,2013-05-05 22:35:00,
2013-05-05 17:40:00,69.4,49.5,29.12,ENE,68,4.0,4.0,49,0.00,,---,0.00,VWS V14.01,2013-05-05 22:40:00,
2013-05-05 17:45:00,69.3,49.3,29.12,ESE,112,5.6,5.6,49,0.00,,---,0.00,VWS V14.01,2013-05-05 22:45:00,
2013-05-05 17:50:00,69.1,48.6,29.12,ENE,68,6.0,7.8,48,0.00,,---,0.00,VWS V14.01,2013-05-05 22:50:00,
2013-05-05 17:56:00,69.1,49.1,29.12,ESE,112,5.4,5.4,49,0.00,,---,0.00,VWS V14.01,2013-05-05 22:56:00,
2013-05-05 18:01:00,68.5,49.2,29.12,ENE,68,4.9,4.9,50,0.00,,---,0.00,VWS V14.01,2013-05-05 23:01:00,
2013-05-05 18:06:00,68.2,49.4,29.12,NE,45,3.6,5.8,51,0.00,,---,0.00,VWS V14.01,2013-05-05 23:06:00,
2013-05-05 18:11:00,67.8,49.6,29.12,SSE,158,1.6,1.6,52,0.00,,---,0.00,VWS V14.01,2013-05-05 23:11:00,
2013-05-05 18:16:00,67.3,48.5,29.14,East,90,7.6,7.6,51,0.00,,---,0.00,VWS V14.01,2013-05-05 23:16:00,
2013-05-05 18:21:00,67.1,48.9,29.14,SE,135,3.6,3.6,52,0.00,,---,0.00,VWS V14.01,2013-05-05 23:21:00,
2013-05-05 18:26:00,66.4,49.2,29.14,ESE,112,2.0,3.1,54,0.00,,---,0.00,VWS V14.01,2013-05-05 23:26:00,
2013-05-05 18:31:00,66.2,49.6,29.14,ENE,68,4.0,4.0,55,0.00,,---,0.00,VWS V14.01,2013-05-05 23:31:00,
2013-05-05 18:36:00,65.7,49.6,29.14,ENE,68,3.4,3.4,56,0.00,,---,0.00,VWS V14.01,2013-05-05 23:36:00,
2013-05-05 18:41:00,65.5,49.9,29.14,East,90,3.1,3.1,57,0.00,,---,0.00,VWS V14.01,2013-05-05 23:41:00,
2013-05-05 18:46:00,65.3,50.2,29.14,East,90,3.6,3.6,58,0.00,,---,0.00,VWS V14.01,2013-05-05 23:46:00,
2013-05-05 18:51:00,65.1,50.0,29.14,East,90,3.8,3.8,58,0.00,,---,0.00,VWS V14.01,2013-05-05 23:51:00,
2013-05-05 18:57:00,65.1,50.0,29.14,East,90,4.5,4.5,58,0.00,,---,0.00,VWS V14.01,2013-05-05 23:57:00,
2013-05-05 19:02:00,65.1,50.0,29.14,ENE,68,0.0,2.0,58,0.00,,---,0.00,VWS V14.01,2013-05-06 00:02:00,
2013-05-05 19:07:00,64.9,50.3,29.14,East,90,3.1,3.1,59,0.00,,---,0.00,VWS V14.01,2013-05-06 00:07:00,
2013-05-05 19:12:00,64.8,50.1,29.14,East,90,2.5,2.5,59,0.00,,---,0.00,VWS V14.01,2013-05-06 00:12:00,
2013-05-05 19:17:00,64.4,50.2,29.14,ENE,68,0.0,2.2,60,0.00,,---,0.00,VWS V14.01,2013-05-06 00:17:00,
2013-05-05 19:22:00,64.4,50.2,29.14,ENE,68,2.5,2.5,60,0.00,,---,0.00,VWS V14.01,2013-05-06 00:22:00,
2013-05-05 19:27:00,64.2,50.5,29.14,East,90,0.9,5.8,61,0.00,,---,0.00,VWS V14.01,2013-05-06 00:27:00,
2013-05-05 19:32:00,64.0,50.3,29.14,ENE,68,3.4,3.4,61,0.00,,---,0.00,VWS V14.01,2013-05-06 00:32:00,
2013-05-05 19:37:00,64.0,50.8,29.14,East,90,2.7,3.4,62,0.00,,---,0.00,VWS V14.01,2013-05-06 00:37:00,
2013-05-05 19:42:00,63.9,50.6,29.14,East,90,2.5,2.9,62,0.00,,---,0.00,VWS V14.01,2013-05-06 00:42:00,
2013-05-05 19:47:00,63.7,50.9,29.14,ENE,68,0.9,1.1,63,0.00,,---,0.00,VWS V14.01,2013-05-06 00:47:00,
2013-05-05 19:52:00,63.5,50.7,29.14,East,90,2.9,2.9,63,0.00,,---,0.00,VWS V14.01,2013-05-06 00:52:00,
2013-05-05 19:57:00,63.5,50.7,29.14,East,90,2.5,3.8,63,0.00,,---,0.00,VWS V14.01,2013-05-06 00:57:00,
2013-05-05 20:02:00,63.3,50.5,29.14,ENE,68,0.0,2.5,63,0.00,,---,0.00,VWS V14.01,2013-05-06 01:02:00,
2013-05-05 20:07:00,63.3,50.5,29.14,ENE,68,2.9,3.1,63,0.00,,---,0.00,VWS V14.01,2013-05-06 01:07:00,
2013-05-05 20:12:00,63.1,50.3,29.14,East,90,2.9,2.9,63,0.00,,---,0.00,VWS V14.01,2013-05-06 01:12:00,
2013-05-05 20:17:00,63.1,50.8,29.14,North,0,0.0,0.0,64,0.00,,---,0.00,VWS V14.01,2013-05-06 01:17:00,
2013-05-05 20:22:00,63.0,51.0,29.14,NNE,22,0.0,0.9,65,0.00,,---,0.00,VWS V14.01,2013-05-06 01:22:00,
2013-05-05 20:28:00,62.6,51.1,29.14,NNE,22,2.5,3.4,66,0.00,,---,0.00,VWS V14.01,2013-05-06 01:28:00,
2013-05-05 20:33:00,62.6,51.1,29.17,NE,45,1.3,1.3,66,0.00,,---,0.00,VWS V14.01,2013-05-06 01:33:00,
2013-05-05 20:38:00,62.4,51.3,29.17,NE,45,2.5,2.5,67,0.00,,---,0.00,VWS V14.01,2013-05-06 01:38:00,
2013-05-05 20:43:00,62.2,51.2,29.17,North,0,0.9,4.9,67,0.00,,---,0.00,VWS V14.01,2013-05-06 01:43:00,
2013-05-05 20:48:00,62.2,51.6,29.17,NE,45,3.6,3.6,68,0.00,,---,0.00,VWS V14.01,2013-05-06 01:48:00,
2013-05-05 20:53:00,62.1,51.4,29.17,East,90,2.9,2.9,68,0.00,,---,0.00,VWS V14.01,2013-05-06 01:53:00,
2013-05-05 20:58:00,62.2,51.2,29.17,NNE,22,5.4,5.4,67,0.00,,---,0.00,VWS V14.01,2013-05-06 01:58:00,
2013-05-05 21:03:00,62.2,51.6,29.17,North,0,3.6,3.6,68,0.00,,---,0.00,VWS V14.01,2013-05-06 02:03:00,
2013-05-05 21:08:00,62.2,51.6,29.17,ENE,68,4.0,4.0,68,0.00,,---,0.00,VWS V14.01,2013-05-06 02:08:00,
2013-05-05 21:13:00,62.1,51.4,29.17,NE,45,2.5,2.5,68,0.00,,---,0.00,VWS V14.01,2013-05-06 02:13:00,
2013-05-05 21:18:00,62.2,51.2,29.17,NE,45,1.3,4.7,67,0.00,,---,0.00,VWS V14.01,2013-05-06 02:18:00,
2013-05-05 21:23:00,62.1,51.0,29.17,NE,45,3.6,3.6,67,0.00,,---,0.00,VWS V14.01,2013-05-06 02:23:00,
2013-05-05 21:29:00,62.2,51.2,29.17,ENE,68,2.7,2.7,67,0.00,,---,0.00,VWS V14.01,2013-05-06 02:29:00,
2013-05-05 21:34:00,62.2,51.2,29.17,NE,45,5.8,5.8,67,0.00,,---,0.00,VWS V14.01,2013-05-06 02:34:00,
2013-05-05 21:39:00,62.2,51.6,29.17,North,0,3.4,6.9,68,0.00,,---,0.00,VWS V14.01,2013-05-06 02:39:00,
2013-05-05 21:44:00,62.2,51.2,29.17,East,90,4.0,4.0,67,0.00,,---,0.00,VWS V14.01,2013-05-06 02:44:00,
2013-05-05 21:49:00,62.2,51.2,29.17,East,90,8.1,8.1,67,0.00,,---,0.00,VWS V14.01,2013-05-06 02:49:00,
2013-05-05 21:54:00,62.2,51.2,29.17,ENE,68,3.8,3.8,67,0.00,,---,0.00,VWS V14.01,2013-05-06 02:54:00,
2013-05-05 21:59:00,62.2,51.2,29.17,ENE,68,4.5,4.5,67,0.00,,---,0.00,VWS V14.01,2013-05-06 02:59:00,
2013-05-05 22:04:00,62.1,51.4,29.17,East,90,6.3,6.3,68,0.00,,---,0.00,VWS V14.01,2013-05-06 03:04:00,
2013-05-05 22:09:00,61.9,51.6,29.17,SE,135,4.0,4.0,69,0.00,,---,0.00,VWS V14.01,2013-05-06 03:09:00,
2013-05-05 22:14:00,61.7,51.4,29.17,ESE,112,2.0,6.3,69,0.00,,---,0.00,VWS V14.01,2013-05-06 03:14:00,
2013-05-05 22:20:00,61.5,51.3,29.17,North,0,1.6,4.0,69,0.00,,---,0.00,VWS V14.01,2013-05-06 03:20:00,
2013-05-05 22:25:00,61.3,51.1,29.17,East,90,6.3,6.3,69,0.00,,---,0.00,VWS V14.01,2013-05-06 03:25:00,
2013-05-05 22:30:00,61.2,50.9,29.17,ENE,68,6.5,6.5,69,0.00,,---,0.00,VWS V14.01,2013-05-06 03:30:00,
2013-05-05 22:35:00,61.2,50.9,29.20,East,90,5.6,5.6,69,0.00,,---,0.00,VWS V14.01,2013-05-06 03:35:00,
2013-05-05 22:40:00,61.0,51.1,29.20,East,90,5.6,5.6,70,0.00,,---,0.00,VWS V14.01,2013-05-06 03:40:00,
2013-05-05 22:45:00,60.8,50.6,29.20,ENE,68,3.4,3.4,69,0.00,,---,0.00,VWS V14.01,2013-05-06 03:45:00,
2013-05-05 22:50:00,60.6,50.8,29.20,ENE,68,3.1,3.1,70,0.00,,---,0.00,VWS V14.01,2013-05-06 03:50:00,
2013-05-05 22:55:00,60.4,50.6,29.20,East,90,4.7,4.7,70,0.00,,---,0.00,VWS V14.01,2013-05-06 03:55:00,
2013-05-05 23:00:00,60.4,50.6,29.20,East,90,2.0,7.2,70,0.00,,---,0.00,VWS V14.01,2013-05-06 04:00:00,
2013-05-05 23:01:00,60.4,50.6,29.20,ENE,68,1.3,1.3,70,0.00,,---,0.00,VWS V14.01,2013-05-06 04:01:00,
2013-05-05 23:02:00,60.4,50.6,29.20,East,90,4.7,4.7,70,0.00,,---,0.00,VWS V14.01,2013-05-06 04:02:00,
2013-05-05 23:03:00,60.3,50.8,29.20,East,90,3.1,8.5,71,0.00,,---,0.00,VWS V14.01,2013-05-06 04:03:00,
2013-05-05 23:09:00,60.1,50.7,29.20,East,90,3.1,3.1,71,0.00,,---,0.00,VWS V14.01,2013-05-06 04:09:00,
2013-05-05 23:14:00,60.1,50.7,29.20,SE,135,2.7,2.7,71,0.00,,---,0.00,VWS V14.01,2013-05-06 04:14:00,
2013-05-05 23:19:00,59.9,50.5,29.20,South,180,2.0,2.0,71,0.00,,---,0.00,VWS V14.01,2013-05-06 04:19:00,
2013-05-05 23:24:00,59.9,50.5,29.20,East,90,4.9,4.9,71,0.00,,---,0.00,VWS V14.01,2013-05-06 04:24:00,
2013-05-05 23:29:00,59.7,50.7,29.20,East,90,2.9,7.6,72,0.00,,---,0.00,VWS V14.01,2013-05-06 04:29:00,
2013-05-05 23:34:00,59.5,50.5,29.20,NE,45,2.9,2.9,72,0.00,,---,0.00,VWS V14.01,2013-05-06 04:34:00,
2013-05-05 23:39:00,59.5,50.5,29.20,ESE,112,3.1,3.8,72,0.00,,---,0.00,VWS V14.01,2013-05-06 04:39:00,
2013-05-05 23:44:00,59.4,50.7,29.20,ENE,68,5.4,5.4,73,0.00,,---,0.00,VWS V14.01,2013-05-06 04:44:00,
2013-05-05 23:49:00,59.2,50.5,29.20,East,90,3.1,3.1,73,0.00,,---,0.00,VWS V14.01,2013-05-06 04:49:00,
2013-05-05 23:54:00,59.0,50.4,29.20,ENE,68,2.0,2.0,73,0.00,,---,0.00,VWS V14.01,2013-05-06 04:54:00,